Regional Weather Roundup
Issued by NWS Sterling, VA

Home | Current Version | Previous Version | Graphics & Text | Print | Product List | Glossary On
Versions: 1 2 3 4 5 6 7 8 9 10 11 12 13 14 15 16 17 18 19 20 21 22 23 24 25 26 27 28 29 30 31 32 33 34 35 36 37 38 39 40 41 42 43 44 45 46 47 48 49 50
000
ASUS41 KLWX 270810
RWRLWX

REGIONAL WEATHER ROUNDUP
NATIONAL WEATHER SERVICE BALTIMORE MD/WASHINGTON DC
400 AM EDT WED MAY 27 2015

Note: "FAIR" indicates few or no clouds below 12,000 feet
with no significant weather and/or obstructions to visibility.
 TC=TEMPERATURE CELSIUS

 * =Non NWS site. Station does not report precipitation (e.g. rain,
    snow, etc.), thunder, or fog.

DCZ001-MDZ009-015-VAZ040>042-051-053>054-270900-
WASHINGTON METRO

CITY           SKY/WX    TMP DP  RH WIND       PRES   REMARKS
WASHINGTON NAT CLOUDY    75  68  78 S9        30.15F
DULLES         CLOUDY    72  66  81 S9        30.14S
ANDREWS AFB    CLEAR     71  69  96 S7        30.15S
FT BELVOIR     MOCLDY    73  69  86 SE5       30.14F
QUANTICO       PTCLDY    75  68  78 SW12      30.15F
COLLEGE PARK*  CLEAR     73  68  83 S3        30.14F
LEESBURG*      CLEAR     72  70  94 S9        30.14S
MANASSAS*      CLOUDY    72  70  94 SE5       30.14F
GAITHERSBURG*  CLEAR     72  64  78 S6        30.18S

$$

MDZ006>007-011-014-270900-
BALTIMORE METRO

CITY           SKY/WX    TMP DP  RH WIND       PRES   REMARKS
BWI AIRPORT    PTCLDY    70  66  87 S3        30.13F
MD SCIENCE CTR   N/A     73  67  81 MISG      30.14F
MARTIN STATE   MOCLDY    72  70  94 SE6       30.15F
ANNAPOLIS      PTCLDY    70  66  87 S5        30.14F
FORT MEADE*    PTCLDY    63  61  94 SE5       30.16F

$$

MDZ012-015-019>023-270900-
MARYLAND EASTERN SHORE

CITY           SKY/WX    TMP DP  RH WIND       PRES   REMARKS
OCEAN CITY     PTCLDY    66  63  90 S7        30.21F
SALISBURY      CLEAR     70  66  87 S8        30.19F
BAY BRIDGE AP*   N/A    N/A N/A N/A S9        30.15F
CAMBRIDGE*     MOCLDY    72  66  83 S6        30.17F
EASTON*        PTCLDY    73  71  92 SW12      30.20F

$$

MDZ017>025-270900-
SOUTHERN MARYLAND

CITY           SKY/WX    TMP DP  RH WIND       PRES   REMARKS
PATUXENT RIVER CLEAR     73  67  81 SW14      30.16F
ST INIGOES     CLEAR     73  67  81 S8        30.16F
LEONARDTOWN*   NOT AVBL

$$

MDZ003>005-270900-
NORTH CENTRAL MARYLAND

CITY           SKY/WX    TMP DP  RH WIND       PRES   REMARKS
FREDERICK*     CLEAR     72  68  88 S5        30.15S
HAGERSTOWN APT PTCLDY    73  68  84 S8        30.11F
WESTMINSTER*   CLEAR     70  66  88 SE6       30.14F

$$

MDZ501>502-270900-
WESTERN MARYLAND

CITY           SKY/WX    TMP DP  RH WIND       PRES   REMARKS
OAKLAND*       MOCLDY    63 N/A N/A W9G18     30.19S
CUMBERLAND*    MOCLDY    64  64 100 CALM      30.14S

$$

VAZ025>031-270900-
SHENANDOAH VALLEY

CITY           SKY/WX    TMP DP  RH WIND       PRES   REMARKS
WINCHESTER*    HAZE      66  61  82 CALM      30.12F VSB 1/4
FRONT ROYAL*   FAIR      66  64  94 CALM      30.11F
LURAY*         FAIR      70  70 100 CALM      30.13F
NEW MARKET*    FAIR      64  64  99 CALM      30.12F
STAUNTON*      CLEAR     64  62  95 CALM      30.16F FOG
WAYNESBORO*    FAIR      65  64  97 CALM      30.15F

$$

WVZ021-048>050-054>055-270900-
EASTERN WEST VIRGINIA PANHANDLE

CITY           SKY/WX    TMP DP  RH WIND       PRES   REMARKS
MARTINSBURG    CLEAR     68  66  93 S5        30.12F
PETERSBURG*    CLEAR     72  61  70 S9        30.12F

$$

VAZ036>039-050-270900-
CENTRAL FOOTHILLS

CITY           SKY/WX    TMP DP  RH WIND       PRES   REMARKS
CHARLOTTESVILL PTCLDY    72  67  84 S6        30.13F
CULPEPER*      MOCLDY    71  67  86 S6        30.14F
ORANGE*        CLOUDY    72  68  88 CALM      30.16F
GORDONSVILLE*  CLOUDY    71  68  89 S3        30.13F
WARRENTON*     CLOUDY    73  69  89 S5        30.13F

$$

VAZ055>057-270900-
NORTH AND CENTRAL PIEDMONT

CITY           SKY/WX    TMP DP  RH WIND       PRES   REMARKS
FREDERICKSBRG* PTCLDY    76  70  82 S8        30.14F
STAFFORD*      MOCLDY    73  67  83 S6        30.19S

$$

NCZ024-NYZ072-PAZ021-071-VAZ022-071-270900-
OTHER REGIONAL OBSERVATIONS

CITY           SKY/WX    TMP DP  RH WIND       PRES   REMARKS
NEW YORK CITY  CLEAR     71  62  73 SW8       30.17F
PHILADELPHIA   MOCLDY    71  65  81 S8        30.16F
PITTSBURGH     LGT RAIN  67  64  90 SW6       30.06F
ROANOKE        CLOUDY    69  65  86 W3        30.17S
RICHMOND       MOCLDY    72  68  87 S7        30.17F
RALEIGH        MOCLDY    72  67  84 S6        30.20S

$$

ANZ530>537-270900-
MARINE OBSERVATIONS

STATION/POSITION TIME  TEMP    WIND        PRES
                       AIR SEA DIR/SP/G
                 (UTC) (F)     (DEG/KT/KT) (MB)
THOMAS PT LIGHT  0800   69 67  170/ 12/ 13 1021.4F
BALT KEY BRIDGE  0700          190/  6/  9 1020.8
COVE POINT       0700          210/ 12/ 14 1022.3
LEWISETTA        0700      74              1021.7
SOLOMONS ISLAND  0706      71                N/A
PINEY POINT      0700          230/ 16/ 18   N/A

$$



USA.gov is the U.S. government's official web portal to all federal, state and local government web resources and services.